TGW427 WMKP-WSSS

Flight info

Callsign TGW427
Flight time 0h 57m
Altitude 39000
Route KABOT1B VIH A464 VKL Y507 MAKNA Y511 TOPOR A464 ARAMA DCT TEBUN TEBUN1A
Aircraft A20N/M-SDE2E3FGHIJ1RWXY/LB1

Departure

Time 2026-04-18 08:49
Airport Penang International Airport (WMKP)

Arrival

Time 2026-04-18 09:47
Airport Singapore Changi Airport (WSSS)
Time Latitude Longitude Altitude Speed Heading
2026-04-18 08:33 5.29136 100.26566 25 ft 0 kts 311°
2026-04-18 08:39 5.29129 100.26574 23 ft 3 kts 312°
2026-04-18 08:39 5.29116 100.26588 24 ft 3 kts 316°
2026-04-18 08:39 5.29100 100.26602 23 ft 3 kts 323°
2026-04-18 08:40 5.29084 100.26613 24 ft 3 kts 338°
2026-04-18 08:40 5.29066 100.26617 23 ft 3 kts 22°
2026-04-18 08:40 5.29058 100.26613 23 ft 1 kts 41°
2026-04-18 08:40 5.29056 100.26611 23 ft 0 kts 41°
2026-04-18 08:42 5.29057 100.26612 23 ft 0 kts 41°
2026-04-18 08:42 5.29069 100.26622 23 ft 7 kts 41°
2026-04-18 08:43 5.29131 100.26678 24 ft 15 kts 41°
2026-04-18 08:43 5.29213 100.26751 23 ft 16 kts 41°
2026-04-18 08:43 5.29266 100.26821 23 ft 8 kts 114°
2026-04-18 08:43 5.29225 100.26868 23 ft 9 kts 132°
2026-04-18 08:44 5.29186 100.26921 25 ft 9 kts 103°
2026-04-18 08:44 5.29217 100.26972 27 ft 9 kts 46°
2026-04-18 08:44 5.29272 100.27021 23 ft 17 kts 42°
2026-04-18 08:44 5.29420 100.27157 23 ft 31 kts 42°
2026-04-18 08:45 5.29583 100.27302 24 ft 31 kts 41°
2026-04-18 08:45 5.29739 100.27444 26 ft 29 kts 42°
2026-04-18 08:45 5.29886 100.27578 24 ft 28 kts 42°
2026-04-18 08:45 5.30025 100.27706 26 ft 26 kts 43°
2026-04-18 08:46 5.30154 100.27832 27 ft 25 kts 45°
2026-04-18 08:46 5.30277 100.27953 23 ft 24 kts 45°
2026-04-18 08:46 5.30396 100.28071 23 ft 24 kts 43°
2026-04-18 08:46 5.30521 100.28186 23 ft 25 kts 42°
2026-04-18 08:47 5.30650 100.28304 24 ft 26 kts 41°
2026-04-18 08:47 5.30786 100.28429 25 ft 26 kts 42°
2026-04-18 08:47 5.30900 100.28544 24 ft 17 kts 63°
2026-04-18 08:47 5.30876 100.28641 25 ft 15 kts 133°
2026-04-18 08:48 5.30818 100.28681 25 ft 4 kts 193°
2026-04-18 08:48 5.30793 100.28662 25 ft 15 kts 219°
2026-04-18 08:48 5.30524 100.28419 24 ft 87 kts 222°
2026-04-18 08:48 5.29927 100.27877 27 ft 142 kts 222°
2026-04-18 08:49 5.29116 100.27159 311 ft 164 kts 222°
2026-04-18 08:49 5.28218 100.26391 939 ft 171 kts 213°
2026-04-18 08:49 5.27096 100.26040 1668 ft 171 kts 178°
2026-04-18 08:49 5.25926 100.26321 2158 ft 183 kts 159°
2026-04-18 08:50 5.24683 100.26810 2579 ft 201 kts 156°
2026-04-18 08:50 5.23323 100.27366 2972 ft 221 kts 158°
2026-04-18 08:50 5.21819 100.27958 3408 ft 244 kts 158°
2026-04-18 08:50 5.20177 100.28590 3939 ft 263 kts 158°
2026-04-18 08:51 5.18412 100.29268 4625 ft 277 kts 158°
2026-04-18 08:51 5.16610 100.29962 5668 ft 279 kts 158°
2026-04-18 08:51 5.14784 100.30666 6684 ft 283 kts 158°
2026-04-18 08:51 5.12937 100.31377 7644 ft 287 kts 158°
2026-04-18 08:52 5.11086 100.32093 8529 ft 291 kts 158°
2026-04-18 08:52 5.09182 100.32824 9434 ft 295 kts 158°
2026-04-18 08:52 5.07259 100.33571 10313 ft 299 kts 155°
2026-04-18 08:52 5.05491 100.34774 10737 ft 320 kts 133°
2026-04-18 08:53 5.04228 100.36695 11018 ft 343 kts 115°
2026-04-18 08:53 5.03286 100.38933 11640 ft 352 kts 111°
2026-04-18 08:53 5.02399 100.41231 12452 ft 355 kts 111°
2026-04-18 08:53 5.01492 100.43555 13185 ft 359 kts 112°
2026-04-18 08:54 5.00544 100.45893 13906 ft 364 kts 112°
2026-04-18 08:54 4.99587 100.48221 14662 ft 368 kts 112°
2026-04-18 08:54 4.98594 100.50604 15388 ft 372 kts 113°
2026-04-18 08:54 4.97585 100.53010 16078 ft 376 kts 113°
2026-04-18 08:55 4.96565 100.55437 16757 ft 380 kts 113°
2026-04-18 08:55 4.95535 100.57892 17419 ft 384 kts 113°
2026-04-18 08:55 4.94493 100.60370 18032 ft 388 kts 113°
2026-04-18 08:55 4.93442 100.62873 18655 ft 391 kts 113°
2026-04-18 08:56 4.92381 100.65398 19259 ft 395 kts 113°
2026-04-18 08:56 4.91306 100.67953 19821 ft 400 kts 114°
2026-04-18 08:56 4.90029 100.70440 20383 ft 403 kts 121°
2026-04-18 08:56 4.88454 100.72730 20930 ft 406 kts 128°
2026-04-18 08:57 4.84759 100.77081 21997 ft 413 kts 130°
2026-04-18 08:57 4.82889 100.79286 22459 ft 418 kts 130°
2026-04-18 08:57 4.80999 100.81515 22957 ft 421 kts 130°
2026-04-18 08:58 4.79096 100.83761 23433 ft 424 kts 130°
2026-04-18 08:58 4.77180 100.86023 23911 ft 426 kts 130°
2026-04-18 08:58 4.75252 100.88298 24317 ft 430 kts 130°
2026-04-18 08:58 4.73331 100.90563 24723 ft 434 kts 130°
2026-04-18 08:59 4.71368 100.92877 25140 ft 437 kts 130°
2026-04-18 08:59 4.69392 100.95206 25556 ft 440 kts 130°
2026-04-18 08:59 4.67405 100.97548 25950 ft 442 kts 130°
2026-04-18 08:59 4.65407 100.99904 26337 ft 445 kts 130°
2026-04-18 09:00 4.63397 101.02273 26712 ft 447 kts 130°
2026-04-18 09:00 4.61376 101.04656 27078 ft 450 kts 130°
2026-04-18 09:00 4.59271 101.06979 27447 ft 452 kts 137°
2026-04-18 09:00 4.56783 101.08908 27776 ft 454 kts 148°
2026-04-18 09:01 4.53999 101.10316 28087 ft 456 kts 159°
2026-04-18 09:01 4.50963 101.11263 28405 ft 458 kts 164°
2026-04-18 09:01 4.47885 101.12148 28729 ft 461 kts 164°
2026-04-18 09:01 4.44801 101.13040 29038 ft 463 kts 164°
2026-04-18 09:02 4.41703 101.13939 29343 ft 465 kts 163°
2026-04-18 09:02 4.38590 101.14843 29644 ft 467 kts 163°
2026-04-18 09:02 4.35461 101.15753 29944 ft 469 kts 163°
2026-04-18 09:02 4.32322 101.16665 30240 ft 471 kts 164°
2026-04-18 09:03 4.29162 101.17583 30552 ft 473 kts 164°
2026-04-18 09:03 4.26035 101.18492 30879 ft 475 kts 164°
2026-04-18 09:03 4.22863 101.19415 31267 ft 475 kts 164°
2026-04-18 09:03 4.19694 101.20335 31685 ft 473 kts 164°
2026-04-18 09:04 4.16536 101.21252 32121 ft 472 kts 164°
2026-04-18 09:04 4.13387 101.22167 32525 ft 470 kts 164°
2026-04-18 09:04 4.10249 101.23078 32917 ft 469 kts 164°
2026-04-18 09:04 4.07122 101.23985 33286 ft 468 kts 164°
2026-04-18 09:05 4.04000 101.24890 33652 ft 466 kts 164°
2026-04-18 09:05 4.00929 101.25782 33982 ft 466 kts 164°
2026-04-18 09:05 3.97821 101.26685 34272 ft 466 kts 164°
2026-04-18 09:05 3.94711 101.27588 34593 ft 465 kts 164°
2026-04-18 09:06 3.91607 101.28489 34919 ft 464 kts 164°
2026-04-18 09:06 3.88510 101.29388 35237 ft 463 kts 164°
2026-04-18 09:06 3.85425 101.30284 35553 ft 462 kts 164°
2026-04-18 09:06 3.82337 101.31179 35873 ft 461 kts 164°
2026-04-18 09:07 3.79263 101.32071 36163 ft 460 kts 164°
2026-04-18 09:07 3.76195 101.32984 36444 ft 460 kts 163°
2026-04-18 09:07 3.73130 101.33909 36723 ft 459 kts 163°
2026-04-18 09:07 3.70091 101.34826 37193 ft 453 kts 164°
2026-04-18 09:08 3.67132 101.35717 37636 ft 448 kts 164°
2026-04-18 09:08 3.64146 101.36613 37885 ft 448 kts 164°
2026-04-18 09:08 3.61156 101.37509 38085 ft 449 kts 164°
2026-04-18 09:08 3.58166 101.38404 38298 ft 448 kts 164°
2026-04-18 09:09 3.55179 101.39299 38535 ft 448 kts 164°
2026-04-18 09:09 3.52194 101.40193 38750 ft 448 kts 164°
2026-04-18 09:09 3.46226 101.41981 38804 ft 447 kts 164°
2026-04-18 09:10 3.40313 101.43750 38804 ft 447 kts 164°
2026-04-18 09:10 3.34354 101.45539 38804 ft 447 kts 163°
2026-04-18 09:11 3.28594 101.47884 38805 ft 448 kts 155°
2026-04-18 09:11 3.22937 101.50508 38805 ft 448 kts 156°
2026-04-18 09:12 3.17279 101.53117 38802 ft 448 kts 156°
2026-04-18 09:12 3.11657 101.55712 38800 ft 448 kts 156°
2026-04-18 09:13 3.05997 101.58323 38800 ft 448 kts 156°
2026-04-18 09:13 3.00332 101.60938 38800 ft 448 kts 156°
2026-04-18 09:14 2.94704 101.63535 38799 ft 448 kts 156°
2026-04-18 09:14 2.89041 101.66146 38798 ft 449 kts 155°
2026-04-18 09:15 2.83363 101.68768 38800 ft 449 kts 155°
2026-04-18 09:15 2.77682 101.71388 38799 ft 450 kts 155°
2026-04-18 09:16 2.72004 101.74005 38797 ft 450 kts 155°
2026-04-18 09:16 2.66398 101.76704 38796 ft 450 kts 154°
2026-04-18 09:17 2.60770 101.79462 38799 ft 451 kts 154°
2026-04-18 09:17 2.55353 101.82622 38801 ft 452 kts 143°
2026-04-18 09:18 2.50763 101.86902 38803 ft 452 kts 130°
2026-04-18 09:18 2.46953 101.91912 38800 ft 453 kts 127°
2026-04-18 09:19 2.43185 101.96916 38804 ft 454 kts 127°
2026-04-18 09:19 2.39387 102.01957 38801 ft 454 kts 127°
2026-04-18 09:20 2.35585 102.07005 38807 ft 455 kts 127°
2026-04-18 09:20 2.31776 102.12066 38813 ft 456 kts 127°
2026-04-18 09:21 2.27954 102.17135 38811 ft 457 kts 127°
2026-04-18 09:21 2.24168 102.22157 38464 ft 454 kts 127°
2026-04-18 09:22 2.22276 102.24668 37944 ft 448 kts 127°
2026-04-18 09:22 2.20402 102.27153 37845 ft 449 kts 127°
2026-04-18 09:22 2.18515 102.29656 37597 ft 453 kts 127°
2026-04-18 09:22 2.16616 102.32175 37362 ft 455 kts 127°
2026-04-18 09:23 2.14712 102.34701 37109 ft 453 kts 127°
2026-04-18 09:23 2.12822 102.37206 36664 ft 449 kts 127°
2026-04-18 09:23 2.10949 102.39691 35895 ft 447 kts 127°
2026-04-18 09:23 2.09100 102.42145 34781 ft 450 kts 127°
2026-04-18 09:24 2.07202 102.44664 33450 ft 457 kts 127°
2026-04-18 09:24 2.05282 102.47214 32135 ft 462 kts 127°
2026-04-18 09:24 2.03343 102.49788 30872 ft 464 kts 127°
2026-04-18 09:24 2.01404 102.52358 29890 ft 459 kts 126°
2026-04-18 09:25 1.99506 102.54875 29157 ft 449 kts 126°
2026-04-18 09:25 1.97646 102.57344 28364 ft 440 kts 126°
2026-04-18 09:25 1.95828 102.59757 27686 ft 432 kts 126°
2026-04-18 09:25 1.94024 102.62151 26924 ft 430 kts 126°
2026-04-18 09:26 1.92225 102.64538 26435 ft 431 kts 126°
2026-04-18 09:26 1.90424 102.66930 25861 ft 429 kts 126°
2026-04-18 09:26 1.88657 102.69275 25294 ft 426 kts 126°
2026-04-18 09:26 1.86885 102.71629 24719 ft 422 kts 126°
2026-04-18 09:27 1.85133 102.73955 24162 ft 418 kts 126°
2026-04-18 09:27 1.83393 102.76265 23888 ft 415 kts 126°
2026-04-18 09:27 1.81654 102.78571 23813 ft 416 kts 126°
2026-04-18 09:27 1.79912 102.80882 23810 ft 416 kts 126°
2026-04-18 09:28 1.78163 102.83203 23805 ft 418 kts 126°
2026-04-18 09:28 1.76422 102.85513 23799 ft 415 kts 127°
2026-04-18 09:28 1.74676 102.87815 23801 ft 415 kts 127°
2026-04-18 09:28 1.73074 102.90216 23760 ft 416 kts 119°
2026-04-18 09:29 1.71731 102.92722 23562 ft 412 kts 117°
2026-04-18 09:29 1.70395 102.95240 23130 ft 409 kts 117°
2026-04-18 09:29 1.69067 102.97739 22552 ft 406 kts 117°
2026-04-18 09:29 1.67747 103.00219 22006 ft 401 kts 118°
2026-04-18 09:30 1.66450 103.02659 21730 ft 396 kts 118°
2026-04-18 09:30 1.65151 103.05101 21526 ft 400 kts 118°
2026-04-18 09:30 1.63838 103.07563 21179 ft 401 kts 118°
2026-04-18 09:30 1.62426 103.09946 20821 ft 396 kts 127°
2026-04-18 09:31 1.60523 103.11908 20467 ft 393 kts 142°
2026-04-18 09:31 1.58192 103.13310 20102 ft 391 kts 156°
2026-04-18 09:31 1.55693 103.14304 19768 ft 393 kts 158°
2026-04-18 09:31 1.53106 103.15322 19407 ft 394 kts 158°
2026-04-18 09:32 1.50603 103.16318 19056 ft 391 kts 158°
2026-04-18 09:32 1.48188 103.17504 18802 ft 385 kts 146°
2026-04-18 09:32 1.46192 103.19278 18566 ft 385 kts 134°
2026-04-18 09:32 1.44366 103.21240 18311 ft 385 kts 133°
2026-04-18 09:33 1.42554 103.23207 18061 ft 383 kts 133°
2026-04-18 09:33 1.40758 103.25164 17812 ft 381 kts 133°
2026-04-18 09:33 1.38968 103.27121 17422 ft 381 kts 133°
2026-04-18 09:33 1.37195 103.29065 16977 ft 378 kts 133°
2026-04-18 09:34 1.35428 103.31001 16424 ft 374 kts 133°
2026-04-18 09:34 1.33686 103.32913 15873 ft 370 kts 133°
2026-04-18 09:34 1.31963 103.34806 15338 ft 366 kts 133°
2026-04-18 09:34 1.30261 103.36677 14798 ft 363 kts 133°
2026-04-18 09:35 1.28570 103.38535 14265 ft 359 kts 133°
2026-04-18 09:35 1.26897 103.40369 13738 ft 355 kts 133°
2026-04-18 09:35 1.25262 103.42162 13226 ft 352 kts 133°
2026-04-18 09:35 1.23622 103.43963 12704 ft 349 kts 133°
2026-04-18 09:36 1.21994 103.45752 12194 ft 346 kts 133°
2026-04-18 09:36 1.20383 103.47520 11683 ft 343 kts 133°
2026-04-18 09:36 1.18783 103.49272 11191 ft 339 kts 133°
2026-04-18 09:36 1.17199 103.51007 10693 ft 336 kts 133°
2026-04-18 09:37 1.15631 103.52725 10284 ft 330 kts 133°
2026-04-18 09:37 1.14120 103.54380 10142 ft 316 kts 132°
2026-04-18 09:37 1.12662 103.55975 9942 ft 306 kts 133°
2026-04-18 09:37 1.11271 103.57566 9540 ft 303 kts 124°
2026-04-18 09:38 1.10461 103.59479 9025 ft 300 kts 99°
2026-04-18 09:38 1.10299 103.61523 8359 ft 299 kts 92°
2026-04-18 09:38 1.10223 103.63618 7749 ft 296 kts 91°
2026-04-18 09:38 1.10156 103.65634 7166 ft 293 kts 91°
2026-04-18 09:39 1.10077 103.67656 6607 ft 289 kts 92°
2026-04-18 09:39 1.09978 103.69638 6179 ft 281 kts 93°
2026-04-18 09:39 1.09877 103.71568 5815 ft 276 kts 93°
2026-04-18 09:39 1.09785 103.73476 5440 ft 274 kts 92°
2026-04-18 09:40 1.09699 103.75363 5071 ft 271 kts 92°
2026-04-18 09:40 1.09615 103.77237 4706 ft 269 kts 92°
2026-04-18 09:40 1.09534 103.79097 4343 ft 267 kts 92°
2026-04-18 09:40 1.09589 103.80935 3943 ft 265 kts 76°
2026-04-18 09:41 1.10385 103.82579 3501 ft 265 kts 52°
2026-04-18 09:41 1.11554 103.83997 3142 ft 263 kts 51°
2026-04-18 09:41 1.12706 103.85390 2855 ft 263 kts 50°
2026-04-18 09:41 1.13871 103.86790 2607 ft 260 kts 50°
2026-04-18 09:42 1.15026 103.88175 2504 ft 262 kts 50°
2026-04-18 09:42 1.16289 103.89448 2503 ft 252 kts 39°
2026-04-18 09:42 1.17719 103.90370 2500 ft 236 kts 29°
2026-04-18 09:42 1.19148 103.91068 2502 ft 220 kts 25°
2026-04-18 09:43 1.20518 103.91642 2504 ft 207 kts 24°
2026-04-18 09:43 1.21800 103.92196 2509 ft 202 kts 25°
2026-04-18 09:43 1.23103 103.92736 2499 ft 202 kts 24°
2026-04-18 09:43 1.24409 103.93295 2281 ft 205 kts 24°
2026-04-18 09:44 1.25728 103.93857 1991 ft 208 kts 24°
2026-04-18 09:44 1.27065 103.94425 1715 ft 211 kts 24°
2026-04-18 09:44 1.28404 103.94994 1433 ft 211 kts 24°
2026-04-18 09:44 1.29727 103.95555 1166 ft 201 kts 22°
2026-04-18 09:45 1.30956 103.96077 908 ft 184 kts 21°
2026-04-18 09:45 1.32071 103.96550 675 ft 164 kts 21°
2026-04-18 09:45 1.33059 103.96969 458 ft 146 kts 21°
2026-04-18 09:45 1.33945 103.97345 261 ft 132 kts 20°
2026-04-18 09:46 1.34496 103.97579 161 ft 132 kts 20°
2026-04-18 09:46 1.35333 103.97937 33 ft 126 kts 20°
2026-04-18 09:46 1.36134 103.98268 30 ft 58 kts 22°
2026-04-18 09:46 1.36371 103.98367 30 ft 53 kts 22°
2026-04-18 09:47 1.36669 103.98521 30 ft 40 kts 47°
2026-04-18 09:47 1.36743 103.98666 30 ft 15 kts 111°
2026-04-18 09:47 1.36680 103.98692 30 ft 9 kts 196°
2026-04-18 09:47 1.36648 103.98678 30 ft 3 kts 204°
2026-04-18 09:48 1.36614 103.98664 30 ft 5 kts 202°
2026-04-18 09:48 1.36574 103.98647 30 ft 7 kts 203°
2026-04-18 09:48 1.36541 103.98633 30 ft 8 kts 204°
2026-04-18 09:48 1.36483 103.98608 30 ft 10 kts 200°
2026-04-18 09:49 1.36426 103.98633 30 ft 10 kts 116°
2026-04-18 09:49 1.36448 103.98693 30 ft 11 kts 27°
2026-04-18 09:49 1.36526 103.98726 30 ft 13 kts 23°
2026-04-18 09:49 1.36617 103.98766 30 ft 12 kts 30°
2026-04-18 09:50 1.36636 103.98845 30 ft 12 kts 87°
2026-04-18 09:50 1.36642 103.98899 30 ft 3 kts 83°
2026-04-18 09:50 1.36644 103.98910 30 ft 1 kts 83°
2026-04-18 09:50 1.36644 103.98912 30 ft 0 kts 83°